Ann Arbor, MI

4:49 PM EDT on August 21, 2017 (GMT -0400)
Ann Arbor Municipal

Weather History for KARB - July, 2013

Change the Weather History Date:

Sunday, July 21, 2013

  Actual Average Record
Temperature  
Mean Temperature 73 °F -  
Max Temperature 82 °F 80 °F 100 °F (2011)
Min Temperature 64 °F 56 °F 41 °F (2007)
Cooling Degree Days 8    
Growing Degree Days 23 (Base 50)    
Moisture  
Dew Point 61 °F    
Average Humidity 69    
Maximum Humidity 93    
Minimum Humidity 50    
Precipitation  
Precipitation 0.00 in - - ()
Sea Level Pressure  
Sea Level Pressure 29.96 in    
Wind  
Wind Speed 3 mph (East)    
Max Wind Speed 7 mph    
Max Gust Speed -    
Visibility 10 miles    
Events      
Averages and records for this station are not official NWS values.
T = Trace of Precipitation, MM = Missing Value Source: NWS Daily Summary

Daily Weather History Graph

Daily Weather History Graph

Search for Another Location

Airport or City:

Trip Planner

Search our weather history database for the weather conditions in past years. The results will help you decide how hot, cold, wet, or windy it might be!

Date:

Astronomy

Jul. 21, 2013 Rise Set
Actual Time 6:17 AM EDT 9:04 PM EDT
Civil Twilight 5:44 AM EDT 9:37 PM EDT
Nautical Twilight 5:03 AM EDT 10:18 PM EDT
Astronomical Twilight 4:15 AM EDT 11:06 PM EDT
Moon 8:01 PM EDT 5:02 AM EDT
Length of Visible Light 15h 53m
Length of Day
14h 47m
Waxing Gibbous, 98% of the Moon is Illuminated
Jul 21
Waxing Gibbous
Jul 22
Full
Jul 29
Last Quarter
Aug 6
New
Aug 14
First Quarter

Hourly Weather History & Observations

Time (EDT) Temp. Heat Index Dew Point Humidity Pressure Visibility Wind Dir Wind Speed Gust Speed Precip Events Conditions
12:53 AM 64.9 °F - 62.1 °F 90% 29.92 in 10.0 mi Calm Calm - N/A   Clear
1:53 AM 64.9 °F - 63.0 °F 93% 29.92 in 10.0 mi Calm Calm - N/A   Scattered Clouds
2:53 AM 68.0 °F - 64.0 °F 87% 29.93 in 10.0 mi NE 6.9 mph - N/A   Clear
3:53 AM 66.0 °F - 61.0 °F 84% 29.94 in 10.0 mi ENE 3.5 mph - N/A   Clear
4:53 AM 64.9 °F - 57.9 °F 78% 29.94 in 10.0 mi NE 4.6 mph - N/A   Clear
5:53 AM 64.0 °F - 57.0 °F 78% 29.95 in 10.0 mi NE 4.6 mph - N/A   Clear
6:53 AM 64.0 °F - 57.0 °F 78% 29.97 in 10.0 mi NE 4.6 mph - N/A   Clear
7:53 AM 64.9 °F - 55.0 °F 70% 29.99 in 10.0 mi NE 5.8 mph - N/A   Clear
8:53 AM 68.0 °F - 54.0 °F 61% 29.99 in 10.0 mi ENE 5.8 mph - N/A   Clear
9:53 AM 72.0 °F - 57.0 °F 59% 29.99 in 10.0 mi ENE 5.8 mph - N/A   Clear
10:53 AM 73.9 °F - 59.0 °F 59% 30.00 in 10.0 mi ENE 4.6 mph - N/A   Clear
11:53 AM 75.0 °F - 60.1 °F 60% 30.01 in 10.0 mi Calm Calm - N/A   Clear
12:53 PM 78.1 °F - 62.1 °F 58% 30.00 in 10.0 mi Calm Calm - N/A   Clear
1:53 PM 80.1 °F 80.9 °F 60.1 °F 50% 29.98 in 10.0 mi Variable 3.5 mph - N/A   Clear
2:53 PM 82.0 °F 83.0 °F 62.1 °F 51% 29.97 in 10.0 mi Calm Calm - N/A   Partly Cloudy
3:53 PM 81.0 °F 81.7 °F 61.0 °F 50% 29.96 in 10.0 mi Calm Calm - N/A   Mostly Cloudy
4:53 PM 82.0 °F 83.0 °F 62.1 °F 51% 29.95 in 10.0 mi SSE 3.5 mph - N/A   Mostly Cloudy
5:53 PM 82.0 °F 83.1 °F 63.0 °F 52% 29.92 in 10.0 mi Calm Calm - N/A   Clear
6:53 PM 79.0 °F - 63.0 °F 58% 29.92 in 10.0 mi East 4.6 mph - N/A   Scattered Clouds
7:53 PM 77.0 °F - 64.0 °F 64% 29.92 in 10.0 mi SE 3.5 mph - N/A   Clear
8:53 PM 73.0 °F - 64.9 °F 76% 29.93 in 10.0 mi Calm Calm - N/A   Clear
9:53 PM 72.0 °F - 66.0 °F 81% 29.94 in 6.0 mi SE 3.5 mph - N/A   Haze
10:53 PM 72.0 °F - 66.0 °F 81% 29.95 in 10.0 mi ESE 4.6 mph - N/A   Clear
11:53 PM 71.1 °F - 66.0 °F 84% 29.96 in 10.0 mi ESE 3.5 mph - N/A   Clear